Regional Weather Roundup
Issued by NWS

Home | Current Version | Previous Version | Graphics & Text | Print | Product List | Glossary On
Versions: 1 2 3 4 5 6 7 8 9 10 11 12 13 14 15 16 17 18 19 20 21 22 23 24 25 26 27 28 29 30 31 32 33 34 35 36 37 38 39 40 41 42 43 44 45 46 47 48 49 50
000
ASUS45 KABQ 140710
RWRNM
NEW MEXICO REGIONAL WEATHER ROUNDUP
NATIONAL WEATHER SERVICE ALBUQUERQUE NM
1200 AM MST SUN FEB 14 2016

NOTE: "FAIR" MEANS FEW OR NO CLOUDS BELOW 12,000 FEET AGL WITH NO
       SIGNIFICANT WEATHER OR OBSTRUCTIONS TO VISION.

      THIS PRODUCT IS RELEASED AS TWO VERSIONS.  ONE VERSION NEAR
      THE TOP OF THE HOUR CONTAINING PRELIMINARY DATA FROM ALBUQUERQUE
      AND OTHER STATIONS.  A FINAL VERSION WITH ADDITIONAL DATA IS
      ISSUED ABOUT 10 MINUTES AFTER THE HOUR.

NMZ501-503-504-510>518-140800-
NORTHWEST PLATEAU/NORTHCENTRAL MOUNTAINS

CITY           SKY/WX    TMP DP  RH WIND       PRES   REMARKS
FARMINGTON     FAIR      39  25  57 W6        30.15R WCI  35
LOS ALAMOS     FAIR      47   3  16 NE5       30.14F
SANTA FE       FAIR      40  16  37 N9        30.09F WCI  34
TAOS           FAIR      28  21  74 N7        30.16R WCI  21
ANGEL FIRE     FAIR      32  15  50 SW9       30.16R WCI  24

$$
NMZ402-403-502-505>509-140800-
WESTCENTRAL MOUNTAINS/SOUTHWEST MOUNTAINS

CITY           SKY/WX    TMP DP  RH WIND       PRES   REMARKS
GALLUP         FAIR      23  18  81 CALM      30.20F
GRANTS         FAIR      25  11  57 NW16      30.21S WCI  12
SILVER CITY      N/A     50  10  20 NW14      30.14S

$$
NMZ407-409-411-412-140800-
SOUTHERN DESERTS

CITY           SKY/WX    TMP DP  RH WIND       PRES   REMARKS
LORDSBURG      FAIR      46  14  27 NW6       30.10S
DEMING         FAIR      44  12  27 SW7       30.09R
LAS CRUCES     FAIR      45  12  26 CALM      30.08R
HOLLOMAN AFB   FAIR      44   9  24 CALM      30.03S
ALAMOGORDO     FAIR      46   9  21 NE6       30.04F
T OR C         FAIR      53  12  19 NW12      30.09S

$$
NMZ519>523-140800-
CENTRAL VALLEYS/CENTRAL HIGHLANDS

CITY           SKY/WX    TMP DP  RH WIND       PRES   REMARKS
ALBUQUERQUE    FAIR      49  15  25 N9        30.11F
DOUBLE EAGLE   FAIR      42  13  31 W10       30.12F
MORIARTY ARPT  FAIR      38  10  32 NE8       30.12F WCI  32
CLINES CORNERS FAIR      38  17  42 NW16      30.10F WCI  29
BELEN          FAIR      44  12  27 N8        30.11S
SOCORRO        FAIR      50   6  16 CALM      30.11S

$$
NMZ524>526-539-540-140800-
SOUTHCENTRAL MOUNTAINS

CITY           SKY/WX    TMP DP  RH WIND       PRES   REMARKS
RUIDOSO          N/A     45   7  21 W6        30.16S

$$
NMZ527>531-140800-
NORTHEAST HIGHLANDS/NORTHEAST PLAINS

CITY           SKY/WX    TMP DP  RH WIND       PRES   REMARKS
LAS VEGAS      FAIR      45   6  20 CALM      30.08F
RATON          FAIR      42  11  28 N7        30.02S
CLAYTON        FAIR      52  13  21 NW15      29.95R

$$
NMZ532>537-140800-
EASTCENTRAL PLAINS

CITY           SKY/WX    TMP DP  RH WIND       PRES   REMARKS
TUCUMCARI      FAIR      42  18  37 W7        29.93F
CANNON AFB     FAIR      47  17  30 NW10      29.97F
CLOVIS AIRPORT FAIR      50  18  27 W14       29.96F

$$
NMZ028-029-538-140800-
SOUTHEAST PLAINS

CITY           SKY/WX    TMP DP  RH WIND       PRES   REMARKS
ROSWELL        FAIR      47  16  29 NE3       29.98S
ARTESIA        FAIR      52  16  24 W14       29.98F
CARLSBAD       FAIR      44  28  53 N6        29.98F
HOBBS          FAIR      46  37  71 S9        30.01F


$$



USA.gov is the U.S. government's official web portal to all federal, state and local government web resources and services.